Location: Grumo
(45.8833°N, 9.6500°E)
Time: 12:49:16
(UTC+00:00)

Daily predictions for brighter satellites

Satellite Brightness Start Highest point End
(mag) Time Altitude Azimuth Time Altitude Azimuth Time Altitude Azimuth
BREEZE-M DEB (TANK) 4.2 15:58:16 10° W 16:02:06 71° N 16:15:17 10° ENE
Cosmos 44 3.5 16:02:30 10° NW 16:07:49 79° NE 16:13:15 10° SE
PSLV R/B 3.9 16:04:45 10° SSE 16:08:50 75° ENE 16:12:53 10° N
CZ-4B R/B 3.4 16:04:17 10° SE 16:09:18 45° ENE 16:14:19 10° N
CZ-4B R/B 4.3 16:05:55 10° S 16:10:00 47° W 16:14:17 10° NNW
H-2A R/B 2.5 16:07:56 10° SSE 16:12:06 61° ENE 16:16:08 10° N
MOS 1-B 4.4 16:08:45 10° SSE 16:14:32 78° ENE 16:20:22 10° NNW
Cosmos 2369 Rocket 2.9 16:10:13 10° N 16:15:18 32° NE 16:20:19 10° ESE
Cosmos 1943 Rocket 2.4 16:11:41 10° NNW 16:17:04 48° ENE 16:22:27 10° SE
ADEOS Rocket 3.7 16:09:53 10° NNE 16:17:44 87° ESE 16:25:24 10° SSW
NOAA 12 4.3 16:13:46 10° SE 16:18:54 51° ENE 16:24:03 10° N
H-2A R/B 2.2 16:17:48 10° NNE 16:21:57 53° E 16:26:10 10° S
NOAA 6 4.1 16:20:28 10° SSE 16:25:37 88° WSW 16:30:47 10° NNW
Okean O Rocket 1.8 16:21:30 10° SE 16:25:42 48° ENE 16:29:57 10° N
Cosmos 1782 3.8 16:23:12 10° SSE 16:26:31 26° E 16:29:51 10° NNE
Okean-O 4.3 16:25:36 10° E 16:27:41 13° ENE 16:29:46 10° NNE
CRYOSAT 2 4.3 16:24:32 10° N 16:29:27 75° E 16:34:20 10° S
H-2A R/B 3.8 16:26:28 10° S 16:30:13 51° W 16:34:02 10° NNW
ISS -2.5 16:27:27 10° WNW 16:30:27 29° N 16:32:58 13° ENE
Cosmos 1633 Rocket 3.0 16:26:28 10° N 16:30:48 60° ENE 16:35:06 10° SSE
Cosmos 1933 3.3 16:28:04 10° S 16:32:04 65° E 16:36:08 10° NNE
Cosmos 2218 Rocket 4.0 16:31:11 10° N 16:37:16 61° ENE 16:43:21 10° SSE
Cosmos 2366 rocket 4.0 16:32:08 10° N 16:38:14 59° ENE 16:44:17 10° SSE
Cosmos 1867 4.3 16:33:35 10° SW 16:38:53 52° NW 16:44:15 10° NNE
ERS-2 3.3 16:36:10 11° NE 16:38:57 24° E 16:41:58 10° SSE
Meteor 1-25 Rocket 4.2 16:33:26 10° N 16:39:06 74° E 16:44:48 10° SSE
Envisat 3.6 16:36:53 10° S 16:41:54 63° W 16:46:58 10° NNW
Lacrosse 5 rocket 1.9 16:44:02 10° WSW 16:47:32 42° NNW 16:50:15 15° NE
Cosmos 773 Rocket 4.0 16:43:08 10° SSW 16:48:24 81° ESE 16:53:44 10° NNE
SL-23 DEB 4.2 16:45:24 10° SW 16:48:52 59° SE 16:52:39 17° ENE
NOSS 3-2 (A) 4.4 16:46:26 10° SSE 16:50:57 26° ESE 16:54:01 17° ENE
YAOGAN 6 3.6 16:47:31 10° S 16:51:02 49° W 16:54:33 10° NNW
Cosmos 1606 4.3 16:50:15 10° SW 16:53:52 37° WNW 16:57:32 10° N
FengYun 1-2 T 4.1 16:50:35 10° SSE 16:56:05 75° ENE 17:01:36 10° N
AQUARIUS 4.2 16:51:37 10° SSE 16:56:07 83° WSW 17:00:38 10° NNW
Feng Yun 1-1 Rocket 4.4 16:50:43 10° SE 16:56:15 52° ENE 17:01:40 10° N
OE (NEXTSAT) 4.2 16:53:01 10° W 16:56:30 88° N 16:58:30 23° E
CZ-4B R/B 1.4 16:56:26 18° NNE 16:58:31 47° E 17:01:36 10° S
SL-16 R/B 2.7 16:52:58 10° SW 16:58:34 61° WNW 17:04:11 10° NNE
BREEZE-M DEB (TANK) 1.4 17:00:35 10° WSW 17:02:59 79° NNW 17:03:26 46° ENE
USA 215 4.0 16:59:20 18° ENE 17:03:25 34° SE 17:09:15 10° SSW
SMAP 3.7 17:00:34 10° S 17:05:10 60° W 17:09:47 10° NNW
Cosmos 1500 3.7 17:02:48 10° N 17:06:21 35° ENE 17:09:54 10° SE
YAOGAN 1 3.6 17:09:19 25° ENE 17:09:19 25° ENE 17:12:31 10° N
USA 238 DEB 4.3 17:04:12 10° S 17:09:59 34° ESE 17:13:06 23° ENE
USA 238 4.3 17:04:18 10° S 17:10:05 34° ESE 17:13:10 23° ENE
Cosmos 1656 Rocket 3.9 17:05:34 10° NNW 17:10:59 45° ENE 17:16:18 10° SE
Cosmos 1151 Rocket 3.6 17:08:01 10° SSW 17:12:14 59° W 17:16:28 10° N
SL-24 DEB 4.4 17:07:40 10° NNE 17:12:17 49° E 17:16:50 10° SSE
Cosmos 1470 Rocket 3.5 17:08:59 10° N 17:13:19 85° W 17:17:38 10° S
MOS 1 Rocket 4.4 17:13:25 23° NE 17:15:32 30° E 17:20:13 10° SSE
Cosmos 158 Rocket 4.4 17:15:03 10° S 17:19:35 37° ESE 17:20:55 31° ENE
Cosmos 2263 4.1 17:14:18 10° NNW 17:19:54 66° ENE 17:25:27 10° SE
Cosmos 1515 Rocket 3.5 17:15:49 10° S 17:20:12 85° E 17:24:39 10° N
CZ-2C R/B 3.2 17:16:15 10° SE 17:20:55 42° ENE 17:25:26 10° N
SWAS 4.4 17:18:09 10° SSW 17:22:22 66° ESE 17:24:10 33° NE
Cosmos 923 Rocket 4.3 17:18:03 10° S 17:22:55 42° ESE 17:24:50 30° ENE
Cosmos 1238 Rocket 3.4 17:21:36 10° N 17:25:27 42° E 17:30:05 10° SSE
COSMO-SKYMED 1 2.5 17:23:07 19° NNE 17:26:12 65° ESE 17:30:30 10° S
Cosmos 1689 Rocket 4.1 17:29:01 18° SSE 17:29:01 18° SSE 17:29:56 10° S
USA 281 3.3 17:21:32 10° SE 17:27:48 50° NE 17:34:06 10° NNW
X-37B 0.6 17:26:07 10° WSW 17:29:16 66° S 17:29:28 63° SE
Nadezhda 3 Rocket 4.0 17:23:20 10° S 17:29:33 58° E 17:35:47 10° NNE
SAR-Lupe-4 3.5 17:29:14 53° ENE 17:29:45 61° ESE 17:33:19 10° S
Helios 1A Rocket 3.5 17:33:25 37° NNE 17:33:25 37° NNE 17:36:15 10° N
Meteor 2-6 Rocket 4.1 17:27:07 10° S 17:32:37 63° E 17:37:14 14° NNE
Cosmos 2228 Rocket 3.1 17:28:21 10° S 17:32:47 56° E 17:34:29 34° NE
Meteor 1-4 Rocket 3.8 17:30:51 10° SSW 17:34:15 41° WNW 17:37:26 11° N
H-2A R/B 2.4 17:35:17 39° E 17:35:46 40° ENE 17:40:31 10° N
Cosmos 1812 2.6 17:32:51 10° S 17:36:35 60° E 17:36:35 60° E
USA 267 3.6 17:34:11 31° ENE 17:36:53 48° NNE 17:43:08 10° NW
Cosmos 1821 Rocket 3.9 17:31:54 10° N 17:38:11 73° E 17:44:30 10° SSE
Cosmos 1939 Rocket 3.1 17:34:31 10° S 17:38:22 68° WSW 17:42:19 10° NNW
CZ-4 R/B 4.3 17:36:00 10° SSE 17:40:09 85° ENE 17:44:19 10° NNW
CZ-4 R/B 1.7 17:41:27 47° NNE 17:41:27 47° NNE 17:44:36 10° N
Meteor 1-11 Rocket 3.9 17:35:37 10° N 17:41:15 50° ENE 17:46:58 10° SSE
NOSS 3-3 (A) 4.5 17:34:40 10° NW 17:42:04 67° NE 17:47:58 21° SE
NOSS 3-3 (C) 4.5 17:34:44 10° NW 17:42:10 66° NE 17:47:58 21° SE
PSLV R/B 3.8 17:42:20 63° E 17:42:34 65° ESE 17:46:35 10° S
CSL-04 Rocket 4.1 17:44:05 38° NE 17:44:05 38° NE 17:48:12 10° N
BREEZE-M DEB (TANK) 3.5 17:40:16 10° SW 17:42:53 25° S 17:42:53 25° S
Cosmos 1933 Rocket 4.1 17:38:57 10° NNW 17:43:22 60° W 17:47:44 10° S
Cosmos 44 Rocket 3.3 17:38:23 10° NNW 17:43:33 65° NE 17:45:09 43° ESE
IRS-1C Rocket 4.1 17:39:23 10° SSE 17:44:40 82° WSW 17:49:59 10° NNW
Cosmos 546 4.4 17:42:22 10° WSW 17:46:12 88° SSE 17:46:15 87° ESE
SAR-Lupe-1 4.0 17:46:35 81° NNW 17:46:44 86° WNW 17:50:19 10° SSW
Lacrosse 4 Rocket 3.3 17:45:47 10° S 17:46:59 17° SSE 17:46:59 17° SSE
Cosmos 1680 Rocket 3.5 17:44:37 10° S 17:49:45 56° ESE 17:50:18 53° E
SL-24 R/B 3.7 17:49:33 54° N 17:50:19 76° WNW 17:53:57 10° SSW
Cosmos 1603 3.7 17:48:27 10° SSW 17:54:04 79° WNW 17:56:56 30° NNE
CZ-2D R/B 3.7 17:51:28 10° S 17:55:15 62° W 17:59:05 10° NNW
Cosmos 1943 3.2 17:51:46 10° SSW 17:57:27 83° WNW 17:59:58 35° NNE
Cosmos 2369 Rocket 3.2 17:54:05 10° NW 17:59:31 47° WSW 18:04:51 10° S
Cosmos 1943 Rocket 4.2 17:55:53 10° NW 18:00:32 28° WSW 18:05:13 10° SSW
Meteor 1-5 Rocket 4.4 17:55:46 10° NNW 18:01:40 73° W 18:07:21 10° S
Okean O Rocket 4.5 17:59:20 10° SW 18:02:19 18° W 18:05:20 10° NW
Okean-O 2.6 17:59:07 10° S 18:03:33 79° WSW 18:08:00 10° NNW
Cosmos 1461 4.1 17:59:50 10° SSW 18:02:43 35° S 18:02:43 35° S
Cosmos 1371 Rocket 4.3 17:59:39 10° NNW 18:03:40 48° NNE 18:03:40 48° NNE
ARGOS 4.2 18:08:32 32° N 18:08:32 32° N 18:11:29 10° N
CENTAUR R/B 2.5 18:01:56 10° SSW 18:07:35 55° ESE 18:07:44 55° ESE
ISS -1.6 18:04:30 10° WNW 18:05:55 22° NW 18:05:55 22° NW
Cosmos 2112 Rocket 4.0 18:05:04 10° SSW 18:09:53 68° SE 18:09:53 68° SE
Cosmos 2056 Rocket 4.2 18:05:51 10° NNW 18:09:29 41° N 18:09:29 41° N
ERS-2 4.2 18:10:45 18° NNW 18:12:27 25° WNW 18:15:30 10° WSW
NOSS 3-2 (C) 3.4 18:10:13 10° SSW 18:15:10 58° SSE 18:15:10 58° SSE
Cosmos 1869 Rocket 4.0 18:13:41 10° NNW 18:22:43 - S 18:17:49 61° WNW
BREEZE-M DEB (TANK) 3.6 18:13:42 10° WSW 18:19:59 59° SW 18:19:59 59° SW
Meteor 1-27 Rocket 3.9 18:15:48 10° S 18:20:11 58° S 18:20:11 58° S
Lacrosse 5 rocket 3.8 18:25:06 10° NW 18:25:53 13° NW 18:25:53 13° NW
Cosmos 371 Rocket 4.5 18:25:13 10° NNW 18:28:01 35° NNW 18:28:01 35° NNW
NOSS 3-2 (A) 3.6 18:35:29 10° SW 18:41:09 63° NW 18:41:27 62° NNW
USA 215 3.2 18:46:42 79° NNW 18:46:48 79° NW 18:53:21 10° WSW
USA 238 DEB 4.0 18:54:05 10° WSW 19:00:35 58° NW 19:00:35 58° NW
USA 238 4.0 18:54:10 10° SW 19:00:39 58° NW 19:00:39 58° NW
USA 281 4.5 19:06:29 10° S 19:12:26 36° WSW 19:18:26 10° NW
H-2A R/B 3.8 19:15:55 28° W 19:15:55 28° W 19:19:44 10° NW
USA 267 3.9 19:21:32 50° WNW 19:21:32 50° WNW 19:26:17 10° NW
